{"data":{"norad_id":64131,"intl_designator":"2025-111J","name":"STARLINK-11720 [DTC]","alt_names":[],"object_type":"PAYLOAD","status":"ACTIVE","operator":null,"country":"US","launch_date":"2025-05-24","launch_site_code":"AFETR","launch_vehicle":null,"mission":null,"orbit_class":"UNKNOWN","rcs_meters":null,"size_class":null,"mass_kg":null,"dimensions":null,"purposes":["comms"],"wikipedia_slug":null,"has_3d_model":false,"image_url":null,"decayed_at":null,"tle_current":{"epoch":"2026-05-24T22:34:10.700832Z","epoch_age_seconds":83751,"freshness":"FRESH","line1":"1 64131U 25111J   26144.94040163  .00190225  00000+0  14504-2 0  9993","line2":"2 64131  42.9995 234.0287 0001153  14.7900 345.3001 15.70870531 58581","mean_motion":15.70870531,"eccentricity":0.0001153,"inclination_deg":42.9995,"raan_deg":234.0287,"arg_perigee_deg":14.79,"mean_anomaly_deg":345.3001,"bstar":0.0014504,"rev_number":5858,"period_min":91.668916793755,"perigee_km":355.63130665454,"apogee_km":357.18429268535,"semimajor_km":6734.5447996699,"source":"CELESTRAK","updated_at":"2026-05-25T13:38:20.272871Z"}}}